• In Uzbekistan
  • List of Countries
  • For 7 days
  • Water Temperature
  • Satellite Maps
  • Weather Map
  • Weather Widgets
  • user-avatar
    Login

    Hourly Weather Mendoza

    Today, 16 December, Saturday

    Time Temperature Precipitation Wind Pressure Humidity
    00:00 +30°C° 0 mm 2 mps 693 mmHg 34%
    01:00 +30°C° 0 mm 2 mps 693 mmHg 35%
    02:00 +29°C° 0 mm 2 mps 693 mmHg 35%
    03:00 +29°C° 0 mm 2 mps 692 mmHg 34%
    04:00 +28°C° 0 mm 2 mps 692 mmHg 34%
    05:00 +30°C° 0 mm 2 mps 692 mmHg 32%
    06:00 +31°C° 0 mm 2 mps 692 mmHg 29%
    07:00 +32°C° 0 mm 2 mps 692 mmHg 31%
    08:00 +34°C° 0 mm 3 mps 692 mmHg 28%
    09:00 +36°C° 0 mm 3 mps 692 mmHg 24%
    10:00 +37°C° 0 mm 3 mps 692 mmHg 20%
    11:00 +39°C° 0 mm 3 mps 692 mmHg 17%
    12:00 +40°C° 0 mm 3 mps 691 mmHg 15%
    13:00 +42°C° 0 mm 3 mps 691 mmHg 12%
    14:00 +42°C° 0 mm 4 mps 691 mmHg 11%
    15:00 +43°C° 0 mm 4 mps 691 mmHg 10%
    16:00 +43°C° 0 mm 4 mps 691 mmHg 9%
    17:00 +41°C° 0 mm 4 mps 691 mmHg 10%
    18:00 +40°C° 0 mm 4 mps 692 mmHg 12%
    19:00 +39°C° 0 mm 5 mps 692 mmHg 14%
    20:00 +36°C° 0.1 mm 5 mps 693 mmHg 15%
    21:00 +35°C° 0.1 mm 5 mps 693 mmHg 17%
    22:00 +34°C° 0.1 mm 5 mps 694 mmHg 18%
    23:00 +32°C° 0.3 mm 6 mps 695 mmHg 20%

    Tomorrow, 17 December, Sunday

    Time Temperature Precipitation Wind Pressure Humidity
    00:00 +29°C° 0.3 mm 7 mps 695 mmHg 23%
    01:00 +28°C° 0.3 mm 9 mps 696 mmHg 25%
    02:00 +24°C° 0 mm 8 mps 697 mmHg 28%
    03:00 +21°C° 0 mm 7 mps 698 mmHg 30%
    04:00 +18°C° 0 mm 7 mps 699 mmHg 33%
    05:00 +17°C° 0 mm 6 mps 699 mmHg 32%
    06:00 +17°C° 0 mm 6 mps 700 mmHg 30%
    07:00 +17°C° 0 mm 5 mps 700 mmHg 28%
    08:00 +19°C° 0 mm 5 mps 701 mmHg 27%
    09:00 +20°C° 0 mm 5 mps 701 mmHg 25%
    10:00 +21°C° 0 mm 4 mps 701 mmHg 23%
    11:00 +22°C° 0 mm 4 mps 701 mmHg 22%
    12:00 +23°C° 0 mm 4 mps 700 mmHg 21%
    13:00 +25°C° 0 mm 4 mps 700 mmHg 20%
    14:00 +25°C° 0 mm 3 mps 700 mmHg 19%
    15:00 +26°C° 0 mm 3 mps 699 mmHg 19%
    16:00 +26°C° 0 mm 3 mps 699 mmHg 18%
    17:00 +25°C° 0 mm 3 mps 699 mmHg 19%
    18:00 +25°C° 0 mm 2 mps 700 mmHg 20%
    19:00 +24°C° 0 mm 2 mps 700 mmHg 22%
    20:00 +24°C° 0 mm 2 mps 700 mmHg 22%
    21:00 +23°C° 0 mm 2 mps 700 mmHg 22%
    22:00 +23°C° 0 mm 2 mps 700 mmHg 23%
    23:00 +23°C° 0 mm 2 mps 700 mmHg 24%

    Day after tomorrow, 18 December, Monday

    Time Temperature Precipitation Wind Pressure Humidity
    00:00 +21°C° 0 mm 2 mps 699 mmHg 25%
    01:00 +22°C° 0 mm 1 mps 698 mmHg 27%
    02:00 +20°C° 0 mm 2 mps 698 mmHg 27%
    03:00 +20°C° 0 mm 2 mps 697 mmHg 28%
    04:00 +20°C° 0 mm 2 mps 697 mmHg 29%
    05:00 +21°C° 0 mm 2 mps 697 mmHg 27%
    06:00 +24°C° 0 mm 2 mps 698 mmHg 24%
    07:00 +25°C° 0 mm 2 mps 698 mmHg 22%
    08:00 +27°C° 0 mm 3 mps 698 mmHg 21%
    09:00 +29°C° 0 mm 4 mps 698 mmHg 20%
    10:00 +32°C° 0 mm 5 mps 698 mmHg 18%
    11:00 +33°C° 0 mm 5 mps 697 mmHg 18%
    12:00 +34°C° 0 mm 5 mps 697 mmHg 18%
    13:00 +35°C° 0 mm 5 mps 696 mmHg 17%
    14:00 +35°C° 0 mm 5 mps 696 mmHg 18%
    15:00 +35°C° 0 mm 4 mps 696 mmHg 18%
    16:00 +35°C° 0 mm 4 mps 696 mmHg 18%
    17:00 +35°C° 0 mm 3 mps 696 mmHg 20%
    18:00 +34°C° 0 mm 3 mps 696 mmHg 22%
    19:00 +32°C° 0 mm 2 mps 697 mmHg 23%
    20:00 +31°C° 0 mm 3 mps 697 mmHg 26%
    21:00 +30°C° 0 mm 3 mps 697 mmHg 29%
    22:00 +30°C° 0 mm 3 mps 697 mmHg 31%
    23:00 +29°C° 0 mm 3 mps 697 mmHg 33%

    19 December, Tuesday

    Time Temperature Precipitation Wind Pressure Humidity
    00:00 +28°C° 0 mm 3 mps 697 mmHg 35%
    01:00 +28°C° 0 mm 3 mps 696 mmHg 37%
    02:00 +27°C° 0 mm 2 mps 696 mmHg 39%
    03:00 +26°C° 0 mm 2 mps 696 mmHg 41%
    04:00 +26°C° 0 mm 2 mps 696 mmHg 42%
    05:00 +27°C° 0 mm 2 mps 697 mmHg 40%
    06:00 +28°C° 0 mm 3 mps 697 mmHg 37%
    07:00 +29°C° 0 mm 3 mps 698 mmHg 34%
    08:00 +30°C° 0 mm 3 mps 698 mmHg 32%
    09:00 +31°C° 0 mm 3 mps 698 mmHg 31%
    10:00 +34°C° 0 mm 2 mps 698 mmHg 29%
    11:00 +35°C° 0 mm 2 mps 697 mmHg 27%
    12:00 +36°C° 0 mm 3 mps 697 mmHg 25%
    13:00 +36°C° 0 mm 3 mps 697 mmHg 24%
    14:00 +37°C° 0.1 mm 3 mps 696 mmHg 23%
    15:00 +37°C° 0.1 mm 3 mps 696 mmHg 23%
    16:00 +38°C° 0.1 mm 4 mps 696 mmHg 22%
    17:00 +37°C° 0.2 mm 3 mps 696 mmHg 25%
    18:00 +36°C° 0.2 mm 3 mps 696 mmHg 27%
    19:00 +35°C° 0.2 mm 2 mps 697 mmHg 29%
    20:00 +34°C° 0.2 mm 2 mps 697 mmHg 32%
    21:00 +33°C° 0.2 mm 3 mps 697 mmHg 35%
    22:00 +33°C° 0.2 mm 3 mps 697 mmHg 38%
    23:00 +31°C° 0.1 mm 3 mps 697 mmHg 40%

    20 December, Wednesday

    Time Temperature Precipitation Wind Pressure Humidity
    00:00 +31°C° 0.1 mm 3 mps 696 mmHg 42%
    01:00 +30°C° 0.1 mm 3 mps 696 mmHg 43%
    02:00 +29°C° 0 mm 3 mps 696 mmHg 45%
    03:00 +29°C° 0 mm 3 mps 696 mmHg 46%
    04:00 +28°C° 0 mm 2 mps 696 mmHg 48%
    05:00 +29°C° 0 mm 3 mps 696 mmHg 45%
    06:00 +30°C° 0 mm 3 mps 696 mmHg 42%
    07:00 +32°C° 0 mm 4 mps 696 mmHg 39%
    08:00 +34°C° 0 mm 4 mps 696 mmHg 34%
    09:00 +35°C° 0 mm 5 mps 696 mmHg 29%
    10:00 +37°C° 0 mm 5 mps 696 mmHg 25%
    11:00 +39°C° 0 mm 6 mps 695 mmHg 23%
    12:00 +40°C° 0 mm 6 mps 694 mmHg 22%
    13:00 +41°C° 0 mm 6 mps 694 mmHg 20%
    14:00 +41°C° 0 mm 6 mps 693 mmHg 20%
    15:00 +41°C° 0 mm 6 mps 693 mmHg 20%
    16:00 +41°C° 0 mm 5 mps 693 mmHg 20%
    17:00 +40°C° 0 mm 5 mps 693 mmHg 22%
    18:00 +38°C° 0 mm 4 mps 693 mmHg 24%
    19:00 +37°C° 0 mm 4 mps 693 mmHg 26%
    20:00 +36°C° 0.1 mm 4 mps 694 mmHg 30%
    21:00 +35°C° 0.1 mm 4 mps 694 mmHg 33%
    22:00 +34°C° 0.1 mm 4 mps 694 mmHg 36%
    23:00 +33°C° 0.1 mm 4 mps 694 mmHg 38%

    21 December, Thursday

    Time Temperature Precipitation Wind Pressure Humidity
    00:00 +33°C° 0.1 mm 4 mps 693 mmHg 39%
    01:00 +32°C° 0.1 mm 4 mps 693 mmHg 40%
    02:00 +29°C° 0.8 mm 5 mps 693 mmHg 47%
    03:00 +28°C° 0.8 mm 6 mps 694 mmHg 53%
    04:00 +27°C° 0.8 mm 7 mps 694 mmHg 59%
    05:00 +27°C° 0.3 mm 7 mps 694 mmHg 59%
    06:00 +27°C° 0.3 mm 7 mps 695 mmHg 59%
    07:00 +27°C° 0.3 mm 7 mps 696 mmHg 59%
    08:00 +28°C° 0.1 mm 7 mps 696 mmHg 54%
    09:00 +29°C° 0.1 mm 6 mps 696 mmHg 50%
    10:00 +30°C° 0.1 mm 6 mps 696 mmHg 45%
    11:00 +32°C° 0 mm 5 mps 695 mmHg 43%
    12:00 +33°C° 0 mm 5 mps 695 mmHg 40%
    13:00 +34°C° 0 mm 5 mps 695 mmHg 38%
    14:00 +34°C° 0.2 mm 5 mps 694 mmHg 38%
    15:00 +34°C° 0.2 mm 4 mps 694 mmHg 37%
    16:00 +34°C° 0.2 mm 4 mps 694 mmHg 37%
    17:00 +33°C° 0.5 mm 4 mps 694 mmHg 41%
    18:00 +33°C° 0.5 mm 3 mps 694 mmHg 45%
    19:00 +31°C° 0.5 mm 2 mps 694 mmHg 48%
    20:00 +30°C° 0.8 mm 2 mps 695 mmHg 51%
    21:00 +30°C° 0.8 mm 2 mps 695 mmHg 54%
    22:00 +29°C° 0.8 mm 1 mps 695 mmHg 56%
    23:00 +29°C° 0.4 mm 2 mps 694 mmHg 59%
    Show more

    XHprof extension not loaded